• In Österreich
  • Länderverzeichnis
  • Für 7 Tage
  • Wassertemperatur
  • Satellitenkarten
  • Wetterkarte
  • News
  • Widgets
  • user-avatar
    Anmelden

    Stündliche Wetter Campeche

    Heute, 19 September, Mittwoch

    Zeit Temperatur Niederschläge Wind Luftdruck Luftfeuchtigkeit
    00:00 +27°C° 0 mm 1 m/S 756 mmHg 81%
    01:00 +26°C° 0 mm 1 m/S 756 mmHg 83%
    02:00 +26°C° 0 mm 1 m/S 756 mmHg 84%
    03:00 +26°C° 0 mm 1 m/S 756 mmHg 85%
    04:00 +25°C° 0 mm 1 m/S 756 mmHg 87%
    05:00 +25°C° 0 mm 1 m/S 756 mmHg 88%
    06:00 +25°C° 0 mm 1 m/S 756 mmHg 90%
    07:00 +28°C° 0 mm 1 m/S 756 mmHg 77%
    08:00 +31°C° 0 mm 1 m/S 757 mmHg 65%
    09:00 +34°C° 0 mm 1 m/S 757 mmHg 52%
    10:00 +36°C° 0 mm 1 m/S 757 mmHg 46%
    11:00 +39°C° 0 mm 1 m/S 756 mmHg 40%
    12:00 +40°C° 0 mm 1 m/S 756 mmHg 34%
    13:00 +39°C° 0 mm 1 m/S 755 mmHg 38%
    14:00 +37°C° 0 mm 1 m/S 755 mmHg 42%
    15:00 +36°C° 0 mm 1 m/S 754 mmHg 46%
    16:00 +34°C° 0 mm 1 m/S 754 mmHg 51%
    17:00 +33°C° 0 mm 1 m/S 754 mmHg 56%
    18:00 +32°C° 0 mm 1 m/S 754 mmHg 62%
    19:00 +30°C° 0.1 mm 1 m/S 755 mmHg 70%
    20:00 +29°C° 0.1 mm 1 m/S 755 mmHg 77%
    21:00 +28°C° 0.1 mm 1 m/S 756 mmHg 85%
    22:00 +28°C° 0.1 mm 1 m/S 756 mmHg 87%
    23:00 +27°C° 0.1 mm 1 m/S 756 mmHg 89%

    Morgen, 20 September, Donnerstag

    Zeit Temperatur Niederschläge Wind Luftdruck Luftfeuchtigkeit
    00:00 +27°C° 0.1 mm 1 m/S 756 mmHg 92%
    01:00 +26°C° 0 mm 1 m/S 756 mmHg 93%
    02:00 +26°C° 0 mm 1 m/S 756 mmHg 94%
    03:00 +26°C° 0 mm 1 m/S 755 mmHg 95%
    04:00 +26°C° 0 mm 1 m/S 756 mmHg 96%
    05:00 +26°C° 0 mm 1 m/S 756 mmHg 97%
    06:00 +25°C° 0 mm 1 m/S 756 mmHg 98%
    07:00 +28°C° 0 mm 1 m/S 756 mmHg 87%
    08:00 +30°C° 0 mm 2 m/S 757 mmHg 75%
    09:00 +34°C° 0 mm 2 m/S 757 mmHg 64%
    10:00 +35°C° 0 mm 2 m/S 757 mmHg 56%
    11:00 +37°C° 0 mm 2 m/S 757 mmHg 48%
    12:00 +39°C° 0 mm 2 m/S 756 mmHg 41%
    13:00 +38°C° 0 mm 2 m/S 756 mmHg 44%
    14:00 +37°C° 0 mm 2 m/S 755 mmHg 47%
    15:00 +36°C° 0 mm 2 m/S 755 mmHg 51%
    16:00 +35°C° 0.1 mm 2 m/S 755 mmHg 54%
    17:00 +34°C° 0.1 mm 2 m/S 755 mmHg 58%
    18:00 +32°C° 0.1 mm 2 m/S 755 mmHg 62%
    19:00 +31°C° 0 mm 2 m/S 756 mmHg 66%
    20:00 +30°C° 0 mm 2 m/S 757 mmHg 71%
    21:00 +29°C° 0 mm 2 m/S 757 mmHg 76%
    22:00 +29°C° 0 mm 1 m/S 757 mmHg 79%
    23:00 +28°C° 0 mm 1 m/S 758 mmHg 82%

    übermorgen, 21 September, Freitag

    Zeit Temperatur Niederschläge Wind Luftdruck Luftfeuchtigkeit
    00:00 +28°C° 0 mm 1 m/S 758 mmHg 85%
    01:00 +27°C° 0 mm 1 m/S 757 mmHg 88%
    02:00 +27°C° 0 mm 1 m/S 757 mmHg 91%
    03:00 +26°C° 0 mm 1 m/S 757 mmHg 94%
    04:00 +26°C° 0 mm 1 m/S 757 mmHg 95%
    05:00 +26°C° 0 mm 1 m/S 757 mmHg 97%
    06:00 +26°C° 0 mm 1 m/S 757 mmHg 98%
    07:00 +28°C° 0 mm 2 m/S 757 mmHg 86%
    08:00 +30°C° 0 mm 2 m/S 758 mmHg 74%
    09:00 +34°C° 0 mm 2 m/S 758 mmHg 62%
    10:00 +36°C° 0 mm 2 m/S 758 mmHg 54%
    11:00 +38°C° 0 mm 2 m/S 757 mmHg 45%
    12:00 +40°C° 0 mm 2 m/S 756 mmHg 37%
    13:00 +40°C° 0 mm 2 m/S 756 mmHg 37%
    14:00 +40°C° 0 mm 2 m/S 755 mmHg 36%
    15:00 +40°C° 0 mm 2 m/S 754 mmHg 35%
    16:00 +38°C° 0 mm 2 m/S 754 mmHg 40%
    17:00 +37°C° 0 mm 2 m/S 755 mmHg 45%
    18:00 +34°C° 0 mm 1 m/S 755 mmHg 50%
    19:00 +33°C° 0 mm 1 m/S 756 mmHg 55%
    20:00 +32°C° 0 mm 1 m/S 756 mmHg 59%
    21:00 +31°C° 0 mm 2 m/S 757 mmHg 64%
    22:00 +30°C° 0 mm 2 m/S 757 mmHg 68%
    23:00 +30°C° 0 mm 2 m/S 757 mmHg 73%

    22 September, Samstag

    Zeit Temperatur Niederschläge Wind Luftdruck Luftfeuchtigkeit
    00:00 +29°C° 0 mm 2 m/S 757 mmHg 78%
    01:00 +28°C° 0 mm 2 m/S 757 mmHg 83%
    02:00 +27°C° 0 mm 1 m/S 757 mmHg 87%
    03:00 +27°C° 0 mm 1 m/S 756 mmHg 92%
    04:00 +27°C° 0 mm 1 m/S 756 mmHg 94%
    05:00 +26°C° 0 mm 1 m/S 757 mmHg 95%
    06:00 +26°C° 0 mm 1 m/S 757 mmHg 97%
    07:00 +28°C° 0 mm 1 m/S 757 mmHg 86%
    08:00 +30°C° 0 mm 2 m/S 757 mmHg 75%
    09:00 +32°C° 0 mm 2 m/S 758 mmHg 64%
    10:00 +36°C° 0 mm 2 m/S 757 mmHg 55%
    11:00 +38°C° 0 mm 2 m/S 756 mmHg 45%
    12:00 +40°C° 0 mm 2 m/S 756 mmHg 35%
    13:00 +40°C° 0 mm 2 m/S 755 mmHg 35%
    14:00 +40°C° 0 mm 2 m/S 754 mmHg 34%
    15:00 +40°C° 0 mm 2 m/S 753 mmHg 34%
    16:00 +38°C° 0 mm 2 m/S 754 mmHg 41%
    17:00 +35°C° 0 mm 1 m/S 754 mmHg 47%
    18:00 +33°C° 0 mm 1 m/S 754 mmHg 54%
    19:00 +31°C° 1 mm 1 m/S 755 mmHg 64%
    20:00 +30°C° 1 mm 1 m/S 756 mmHg 74%
    21:00 +28°C° 1 mm 1 m/S 756 mmHg 85%
    22:00 +27°C° 0.1 mm 1 m/S 756 mmHg 88%
    23:00 +27°C° 0.1 mm 1 m/S 756 mmHg 90%

    23 September, Sonntag

    Zeit Temperatur Niederschläge Wind Luftdruck Luftfeuchtigkeit
    00:00 +26°C° 0.1 mm 1 m/S 756 mmHg 93%
    01:00 +26°C° 0 mm 1 m/S 756 mmHg 95%
    02:00 +26°C° 0 mm 1 m/S 755 mmHg 96%
    03:00 +26°C° 0 mm 1 m/S 755 mmHg 97%
    04:00 +26°C° 0 mm 1 m/S 755 mmHg 98%
    05:00 +25°C° 0 mm 1 m/S 756 mmHg 98%
    06:00 +25°C° 0 mm 1 m/S 756 mmHg 99%
    07:00 +27°C° 0 mm 1 m/S 756 mmHg 90%
    08:00 +29°C° 0 mm 1 m/S 757 mmHg 81%
    09:00 +31°C° 0 mm 1 m/S 757 mmHg 73%
    10:00 +33°C° 0 mm 1 m/S 757 mmHg 62%
    11:00 +35°C° 0 mm 1 m/S 756 mmHg 52%
    12:00 +39°C° 0 mm 1 m/S 756 mmHg 42%
    13:00 +37°C° 0.1 mm 1 m/S 755 mmHg 42%
    14:00 +37°C° 0.1 mm 1 m/S 754 mmHg 42%
    15:00 +37°C° 0.1 mm 1 m/S 754 mmHg 42%
    16:00 +34°C° 0.7 mm 1 m/S 754 mmHg 56%
    17:00 +31°C° 0.7 mm 1 m/S 754 mmHg 70%
    18:00 +28°C° 0.7 mm 1 m/S 755 mmHg 84%
    19:00 +28°C° 1.8 mm 1 m/S 755 mmHg 88%
    20:00 +27°C° 1.8 mm 1 m/S 756 mmHg 92%
    21:00 +24°C° 1.8 mm 0 m/S 757 mmHg 96%
    22:00 +24°C° 0.2 mm 0 m/S 756 mmHg 97%
    23:00 +24°C° 0.2 mm 0 m/S 756 mmHg 97%

    24 September, Montag

    Zeit Temperatur Niederschläge Wind Luftdruck Luftfeuchtigkeit
    00:00 +24°C° 0.2 mm 0 m/S 756 mmHg 97%
    01:00 +23°C° 0 mm 0 m/S 756 mmHg 97%
    02:00 +23°C° 0 mm 0 m/S 756 mmHg 98%
    03:00 +23°C° 0 mm 0 m/S 756 mmHg 98%
    04:00 +23°C° 0 mm 0 m/S 756 mmHg 98%
    05:00 +23°C° 0 mm 0 m/S 756 mmHg 98%
    06:00 +23°C° 0 mm 0 m/S 756 mmHg 98%
    07:00 +27°C° 0 mm 1 m/S 757 mmHg 89%
    08:00 +29°C° 0 mm 1 m/S 757 mmHg 79%
    09:00 +31°C° 0 mm 1 m/S 758 mmHg 70%
    10:00 +34°C° 0 mm 1 m/S 757 mmHg 58%
    11:00 +36°C° 0 mm 1 m/S 757 mmHg 46%
    12:00 +40°C° 0 mm 1 m/S 756 mmHg 34%
    13:00 +40°C° 0 mm 1 m/S 756 mmHg 34%
    14:00 +39°C° 0 mm 2 m/S 755 mmHg 34%
    15:00 +39°C° 0 mm 2 m/S 754 mmHg 34%
    16:00 +36°C° 0.2 mm 2 m/S 755 mmHg 45%
    17:00 +34°C° 0.2 mm 2 m/S 755 mmHg 57%
    18:00 +30°C° 0.2 mm 1 m/S 756 mmHg 68%
    19:00 +29°C° 0.6 mm 1 m/S 756 mmHg 74%
    20:00 +28°C° 0.6 mm 1 m/S 757 mmHg 79%
    21:00 +25°C° 0.6 mm 0 m/S 757 mmHg 85%
    22:00 +24°C° 0 mm 0 m/S 757 mmHg 86%
    23:00 +24°C° 0 mm 0 m/S 757 mmHg 87%
    Mehr zeigen